Regional Weather Roundup
Issued by NWS

Home | Current Version | Previous Version | Graphics & Text | Print | Product List | Glossary On
Versions: 1 2 3 4 5 6 7 8 9 10 11 12 13 14 15 16 17 18 19 20 21 22 23 24 25 26 27 28 29 30 31 32 33 34 35 36 37 38 39 40 41 42 43 44 45 46 47 48 49 50
000
ASUS43 KMKX 191000
RWRWI

WISCONSIN REGIONAL WEATHER ROUNDUP
NATIONAL WEATHER SERVICE MILWAUKEE/SULLIVAN WI
400 AM CST FRI DEC 19 2014

NOTE: "FAIR" INDICATES FEW OR NO CLOUDS BELOW 12,000 FEET WITH NO
SIGNIFICANT WEATHER AND/OR OBSTRUCTIONS TO VISIBILITY.

WIZ001-002-006>008-014>016-023>028-191100-
NORTHWEST WISCONSIN

CITY           SKY/WX    TMP DP  RH WIND       PRES   REMARKS
SUPERIOR ARPT  CLOUDY    23  20  89 SW6       30.27F WCI  16
ASHLAND        CLOUDY    22  19  89 CALM      30.27F
HAYWARD        CLOUDY    21  18  88 SW8       30.25S WCI  11
SIREN          CLOUDY    22  19  86 S3        30.26F
CUMBERLAND     CLOUDY    21  19  93 SW3       30.24F
RICE LAKE      CLOUDY    23  20  89 S5        30.28S WCI  17
CHETEK         CLOUDY    22  19  88 CALM      30.26F
LADYSMITH      CLOUDY    24  21  89 SW5       30.27S WCI  18
EAU CLAIRE     NOT AVBL
MENOMONIE      CLOUDY    24  20  84 S7        30.28S WCI  16
NEW RICHMOND   CLOUDY    22  19  89 SW5       30.27S WCI  16
OSCEOLA        CLOUDY    23  19  85 S5        30.30F WCI  16
$$

WIZ003>005-009-010-017-018-191100-
NORTH CENTRAL WISCONSIN

CITY           SKY/WX    TMP DP  RH WIND       PRES   REMARKS
MANITOWISH WTR CLOUDY     9   7  92 CALM      30.23S
ARBOR VITAE    CLOUDY     9   6  87 CALM      30.23S
WOODRUFF       CLOUDY     9   6  87 CALM      30.23S
RHINELANDER    CLOUDY     2  -1  88 CALM      30.23S
EAGLE RIVER    FAIR       2  -2  81 CALM      30.22F
LAND O LAKES   CLOUDY    -4  -8  84 CALM      30.23F
PHILLIPS       CLOUDY    17  15  93 CALM      30.23S
TOMAHAWK       PTCLDY     5   2  88 CALM      30.25S
MEDFORD        CLOUDY    21  19  92 CALM      30.23S
MERRILL        PTCLDY    10   8  92 CALM      30.25S
$$

WIZ029-030-035-036-043>047-191100-
CENTRAL WISCONSIN

CITY           SKY/WX    TMP DP  RH WIND       PRES   REMARKS
WAUSAU         PTCLDY    16  13  88 N3        30.24S
MOSINEE        PTCLDY    18  18 100 N5        30.25F WCI  11
MARSHFIELD     CLOUDY    24  20  84 CALM      30.25S
STEVENS POINT  PTCLDY    11   8  89 CALM      30.26F
WAUPACA        CLEAR     17  15  89 CALM      30.28S
WAUTOMA        NOT AVBL
WISC RAPIDS    CLOUDY    22  19  89 CALM      30.28S
CAMP DOUGLAS   NOT AVBL
$$

WIZ011>013-019>022-031-037>040-048>050-191100-
NORTHEAST WISCONSIN

CITY           SKY/WX    TMP DP  RH WIND       PRES   REMARKS
ANTIGO         CLEAR     10   8  93 NE3       30.22F
SHAWANO        PTCLDY    17  14  89 CALM      30.29S
OCONTO         PTCLDY    13  12  98 CALM      30.28S
STURGEON BAY   PTCLDY    23  19  86 N5        30.28S WCI  17
GREEN BAY      PTCLDY    18  15  88 CALM      30.28S
MANITOWOC      NOT AVBL
APPLETON       CLEAR     18  18 100 CALM      30.27S
CLINTONVILLE   CLEAR     16  14  93 CALM      30.27F
OSHKOSH        CLEAR     18  14  84 CALM      30.26F
$$

WIZ032>034-041-042-053>061-191100-
SOUTHWEST WISCONSIN

CITY           SKY/WX    TMP DP  RH WIND       PRES   REMARKS
LA CROSSE      CLOUDY    25  17  72 SW3       30.30S
SPARTA         CLOUDY    24  20  83 W3        30.30S
VIROQUA        CLOUDY    23  20  89 W3        30.25F
BOSCOBEL       CLOUDY    26  19  74 CALM      30.30F
PRAIRIE DU CHI CLOUDY    26  18  73 CALM      30.30F
PLATTEVILLE    CLOUDY    24  20  82 CALM      30.29S
$$

WIZ056-057-062-063-064-067-068-191100-
SOUTH CENTRAL WISCONSIN

CITY           SKY/WX    TMP DP  RH WIND       PRES   REMARKS
REEDSBURG      CLOUDY    24  20  86 SW5       30.27F WCI  18
BARABOO/DELLS  CLOUDY    25  20  82 CALM      30.27S
LONE ROCK      NOT AVBL
MINERAL POINT  CLOUDY    27  21  80 CALM      30.26S
MADISON        CLOUDY    26  20  77 CALM      30.27S
MIDDLETON      CLOUDY    27  22  79 W5        30.28S WCI  22
WATERTOWN      CLOUDY    25  23  92 N3        30.27F
MONROE         CLOUDY    27  23  86 NW5       30.26S WCI  21
JANESVILLE     CLOUDY    28  23  80 CALM      30.28S
$$

WIZ051-052-058>065-066-070>072-191100-
SOUTHEAST WISCONSIN

CITY           SKY/WX    TMP DP  RH WIND       PRES   REMARKS
MILWAUKEE      CLOUDY    28  19  69 NW7       30.27S WCI  21
WAUKESHA       CLOUDY    25  19  80 NW5       30.28R WCI  19
MILWAUKEE/TIMM CLOUDY    27  19  74 NW5       30.28S WCI  21
RACINE         CLOUDY    27  20  75 NW6       30.28S WCI  20
BURLINGTON     CLOUDY    25  20  83 N5        30.28S WCI  19
KENOSHA        CLOUDY    27  21  78 NW7       30.27S WCI  19
FOND DU LAC    CLEAR     17  13  84 S3        30.27F
SHEBOYGAN      CLOUDY    22  18  85 NW7       30.26S WCI  13
WEST BEND      CLEAR     19  16  86 CALM      30.26F
JUNEAU         MOCLDY    20  19  93 CALM      30.27F
$$

LSZ147-162-191100-
LAKE SUPERIOR

STATION/POSITION TIME  TEMP    WIND        PRES    WAVE
                       AIR SEA DIR/SP/G            HT/PER
                 (UTC) (F)     (DEG/KT/KT) (MB)    (FT/S)
DEVILS ISLAND    0900   25     190/  7/  9 1026.6S
PORT WING        0900   23     190/  3/  4 1025.4
SAXON HARBOR     0900   15      CALM  /  3 1025.4F
$$

LMZ867-665-643>646-191100-
LAKE MICHIGAN

STATION/POSITION TIME  TEMP    WIND        PRES    WAVE
                       AIR SEA DIR/SP/G            HT/PER
                 (UTC) (F)     (DEG/KT/KT) (MB)    (FT/S)
CHAMBERS ISLAND  0900   23     290/  3/  7 1025.4S
NORTHPORT PIER   0904   27     340/  6/  8 1025.1R
SISTER BAY       0943             CALM       N/A
ALGOMA LAKESHORE 0814          330/  7/  8   N/A
KEWAUNEE LAKESHO 0900   24     290/  4/  7 1024.0R
SHEBOYGAN LAKESH 0900   25 34  290/ 10/ 12 1026.0F
PORT WASHINGTON  0940   24     290/  6/ 10 1025.7F
MILWAUKEE LAKESH 0900   28     310/  9/ 12   N/A
KENOSHA   LAKESH 0900   28     290/  7/ 10 1025.1S
$$

TC  - TEMPERATURE IN CELSIUS
VSB - VISIBILITY IN STATUTE MILES
WCI - WIND CHILL INDEX
HX  - HEAT INDEX




USA.gov is the U.S. government's official web portal to all federal, state and local government web resources and services.